When you browse on this site, cookies collect data to enhance your experience and personalize the content and advertising you see.
Visit our Privacy Policy to learn more. By continuing to use the site, you agree to this use of cookies and data.
  • en Suisse
  • Liste des pays
  • À 7 jours
  • Température de l'eau
  • Carte météo
  • Widgets météo
  • user-avatar
    Se connecter

    Météo par heure à Ryasino

    Ce jour, 19 Août, Lundi

    Heure Température Précipitation Vent Pression Humidité
    00:00 +14°C° 0 mm 2 m/s 738 mmHg 95%
    01:00 +14°C° 0 mm 2 m/s 738 mmHg 95%
    02:00 +13°C° 0 mm 2 m/s 738 mmHg 95%
    03:00 +13°C° 0 mm 2 m/s 739 mmHg 95%
    04:00 +13°C° 0 mm 2 m/s 739 mmHg 94%
    05:00 +12°C° 0 mm 1 m/s 739 mmHg 94%
    06:00 +14°C° 0 mm 1 m/s 739 mmHg 90%
    07:00 +16°C° 0 mm 1 m/s 740 mmHg 86%
    08:00 +19°C° 0 mm 1 m/s 740 mmHg 83%
    09:00 +19°C° 0 mm 2 m/s 740 mmHg 78%
    10:00 +21°C° 0 mm 2 m/s 740 mmHg 73%
    11:00 +22°C° 0 mm 3 m/s 741 mmHg 68%
    12:00 +24°C° 0 mm 3 m/s 741 mmHg 67%
    13:00 +25°C° 0 mm 3 m/s 741 mmHg 66%
    14:00 +25°C° 0 mm 4 m/s 741 mmHg 65%
    15:00 +25°C° 0 mm 3 m/s 741 mmHg 69%
    16:00 +25°C° 0 mm 3 m/s 741 mmHg 72%
    17:00 +25°C° 0 mm 3 m/s 741 mmHg 76%
    18:00 +22°C° 0 mm 3 m/s 741 mmHg 79%
    19:00 +21°C° 0 mm 3 m/s 741 mmHg 83%
    20:00 +19°C° 0 mm 3 m/s 741 mmHg 87%
    21:00 +19°C° 0 mm 3 m/s 741 mmHg 87%
    22:00 +18°C° 0 mm 3 m/s 741 mmHg 88%
    23:00 +18°C° 0 mm 3 m/s 741 mmHg 89%

    Demain, 20 Août, Mardi

    Heure Température Précipitation Vent Pression Humidité
    00:00 +17°C° 0 mm 3 m/s 741 mmHg 89%
    01:00 +17°C° 0 mm 3 m/s 742 mmHg 89%
    02:00 +17°C° 0 mm 3 m/s 742 mmHg 89%
    03:00 +17°C° 0.7 mm 3 m/s 742 mmHg 91%
    04:00 +16°C° 0.7 mm 2 m/s 742 mmHg 94%
    05:00 +16°C° 0.7 mm 2 m/s 742 mmHg 96%
    06:00 +17°C° 0.1 mm 2 m/s 743 mmHg 95%
    07:00 +18°C° 0.1 mm 2 m/s 743 mmHg 94%
    08:00 +19°C° 0.1 mm 2 m/s 743 mmHg 93%
    09:00 +21°C° 0.2 mm 2 m/s 743 mmHg 88%
    10:00 +23°C° 0.2 mm 2 m/s 743 mmHg 83%
    11:00 +25°C° 0.2 mm 2 m/s 743 mmHg 78%
    12:00 +25°C° 0.8 mm 2 m/s 744 mmHg 77%
    13:00 +26°C° 0.8 mm 2 m/s 744 mmHg 76%
    14:00 +26°C° 0.8 mm 3 m/s 744 mmHg 75%
    15:00 +26°C° 0.6 mm 2 m/s 744 mmHg 78%
    16:00 +26°C° 0.6 mm 2 m/s 744 mmHg 81%
    17:00 +25°C° 0.6 mm 2 m/s 744 mmHg 84%
    18:00 +24°C° 0.5 mm 1 m/s 744 mmHg 87%
    19:00 +22°C° 0.5 mm 1 m/s 744 mmHg 89%
    20:00 +19°C° 0.5 mm 0 m/s 744 mmHg 92%
    21:00 +20°C° 0.1 mm 1 m/s 744 mmHg 93%
    22:00 +20°C° 0.1 mm 1 m/s 744 mmHg 94%
    23:00 +19°C° 0.1 mm 1 m/s 745 mmHg 94%

    Après-demain, 21 Août, Mercredi

    Heure Température Précipitation Vent Pression Humidité
    00:00 +19°C° 0 mm 1 m/s 745 mmHg 95%
    01:00 +19°C° 0 mm 1 m/s 745 mmHg 95%
    02:00 +19°C° 0 mm 1 m/s 745 mmHg 96%
    03:00 +18°C° 0 mm 1 m/s 745 mmHg 96%
    04:00 +18°C° 0 mm 1 m/s 745 mmHg 96%
    05:00 +18°C° 0 mm 1 m/s 745 mmHg 96%
    06:00 +19°C° 0 mm 1 m/s 745 mmHg 95%
    07:00 +20°C° 0 mm 1 m/s 745 mmHg 93%
    08:00 +22°C° 0 mm 1 m/s 745 mmHg 91%
    09:00 +23°C° 0.2 mm 2 m/s 745 mmHg 87%
    10:00 +24°C° 0.2 mm 2 m/s 745 mmHg 84%
    11:00 +25°C° 0.2 mm 3 m/s 745 mmHg 80%
    12:00 +25°C° 0.5 mm 3 m/s 744 mmHg 78%
    13:00 +26°C° 0.5 mm 3 m/s 744 mmHg 76%
    14:00 +26°C° 0.5 mm 3 m/s 744 mmHg 74%
    15:00 +26°C° 0.1 mm 3 m/s 743 mmHg 75%
    16:00 +26°C° 0.1 mm 3 m/s 743 mmHg 77%
    17:00 +26°C° 0.1 mm 3 m/s 743 mmHg 78%
    18:00 +25°C° 0 mm 3 m/s 742 mmHg 81%
    19:00 +22°C° 0 mm 3 m/s 742 mmHg 83%
    20:00 +21°C° 0 mm 3 m/s 742 mmHg 86%
    21:00 +20°C° 0 mm 3 m/s 742 mmHg 87%
    22:00 +19°C° 0 mm 3 m/s 742 mmHg 87%
    23:00 +19°C° 0 mm 3 m/s 742 mmHg 88%

    22 Août, Jeudi

    Heure Température Précipitation Vent Pression Humidité
    00:00 +18°C° 0.3 mm 2 m/s 743 mmHg 90%
    01:00 +18°C° 0.3 mm 2 m/s 743 mmHg 92%
    02:00 +18°C° 0.3 mm 2 m/s 743 mmHg 94%
    03:00 +17°C° 0.5 mm 2 m/s 743 mmHg 95%
    04:00 +17°C° 0.5 mm 3 m/s 743 mmHg 96%
    05:00 +16°C° 0.5 mm 3 m/s 743 mmHg 97%
    06:00 +16°C° 0.1 mm 3 m/s 743 mmHg 96%
    07:00 +15°C° 0.1 mm 4 m/s 743 mmHg 95%
    08:00 +15°C° 0.1 mm 4 m/s 744 mmHg 94%
    09:00 +17°C° 0 mm 4 m/s 744 mmHg 90%
    10:00 +17°C° 0 mm 4 m/s 744 mmHg 87%
    11:00 +18°C° 0 mm 4 m/s 744 mmHg 83%
    12:00 +19°C° 0 mm 3 m/s 744 mmHg 81%
    13:00 +19°C° 0 mm 3 m/s 745 mmHg 79%
    14:00 +20°C° 0 mm 3 m/s 745 mmHg 77%
    15:00 +20°C° 0 mm 3 m/s 745 mmHg 78%
    16:00 +19°C° 0 mm 3 m/s 744 mmHg 78%
    17:00 +19°C° 0 mm 2 m/s 744 mmHg 79%
    18:00 +18°C° 0 mm 2 m/s 744 mmHg 83%
    19:00 +17°C° 0 mm 2 m/s 745 mmHg 87%
    20:00 +16°C° 0 mm 1 m/s 745 mmHg 91%
    21:00 +15°C° 0 mm 1 m/s 745 mmHg 92%
    22:00 +15°C° 0 mm 2 m/s 745 mmHg 93%
    23:00 +15°C° 0 mm 2 m/s 745 mmHg 93%

    23 Août, Vendredi

    Heure Température Précipitation Vent Pression Humidité
    00:00 +14°C° 0 mm 2 m/s 745 mmHg 94%
    01:00 +14°C° 0 mm 2 m/s 745 mmHg 94%
    02:00 +13°C° 0 mm 2 m/s 745 mmHg 95%
    03:00 +13°C° 0 mm 2 m/s 745 mmHg 95%
    04:00 +13°C° 0 mm 2 m/s 745 mmHg 95%
    05:00 +13°C° 0 mm 2 m/s 745 mmHg 95%
    06:00 +14°C° 0 mm 2 m/s 745 mmHg 90%
    07:00 +16°C° 0 mm 2 m/s 745 mmHg 86%
    08:00 +17°C° 0 mm 2 m/s 745 mmHg 81%
    09:00 +18°C° 0 mm 2 m/s 745 mmHg 76%
    10:00 +20°C° 0 mm 2 m/s 745 mmHg 70%
    11:00 +21°C° 0 mm 2 m/s 745 mmHg 64%
    12:00 +21°C° 0.1 mm 3 m/s 745 mmHg 64%
    13:00 +21°C° 0.1 mm 3 m/s 745 mmHg 64%
    14:00 +21°C° 0.1 mm 3 m/s 745 mmHg 65%
    15:00 +20°C° 0.2 mm 3 m/s 745 mmHg 68%
    16:00 +20°C° 0.2 mm 3 m/s 745 mmHg 71%
    17:00 +19°C° 0.2 mm 2 m/s 745 mmHg 74%
    18:00 +18°C° 0 mm 3 m/s 745 mmHg 77%
    19:00 +16°C° 0 mm 3 m/s 746 mmHg 80%
    20:00 +13°C° 0 mm 3 m/s 746 mmHg 83%
    21:00 +12°C° 0 mm 3 m/s 746 mmHg 86%
    22:00 +12°C° 0 mm 3 m/s 746 mmHg 89%
    23:00 +11°C° 0 mm 3 m/s 746 mmHg 92%

    24 Août, Samedi

    Heure Température Précipitation Vent Pression Humidité
    00:00 +11°C° 0 mm 3 m/s 746 mmHg 93%
    01:00 +10°C° 0 mm 3 m/s 746 mmHg 94%
    02:00 +10°C° 0 mm 3 m/s 747 mmHg 94%
    03:00 +10°C° 0 mm 2 m/s 747 mmHg 95%
    04:00 +9°C° 0 mm 2 m/s 747 mmHg 95%
    05:00 +9°C° 0 mm 2 m/s 747 mmHg 96%
    06:00 +12°C° 0 mm 2 m/s 747 mmHg 90%
    07:00 +13°C° 0 mm 2 m/s 748 mmHg 85%
    08:00 +15°C° 0 mm 2 m/s 748 mmHg 80%
    09:00 +17°C° 0 mm 2 m/s 748 mmHg 73%
    10:00 +18°C° 0 mm 2 m/s 748 mmHg 65%
    11:00 +20°C° 0 mm 2 m/s 748 mmHg 58%
    12:00 +20°C° 0 mm 2 m/s 748 mmHg 56%
    13:00 +21°C° 0 mm 2 m/s 748 mmHg 54%
    14:00 +21°C° 0 mm 2 m/s 748 mmHg 53%
    15:00 +21°C° 0 mm 2 m/s 748 mmHg 58%
    16:00 +22°C° 0 mm 1 m/s 748 mmHg 63%
    17:00 +22°C° 0 mm 1 m/s 748 mmHg 68%
    18:00 +20°C° 0 mm 1 m/s 748 mmHg 72%
    19:00 +18°C° 0 mm 1 m/s 747 mmHg 77%
    20:00 +14°C° 0 mm 1 m/s 747 mmHg 81%
    21:00 +14°C° 0 mm 1 m/s 748 mmHg 83%
    22:00 +13°C° 0 mm 1 m/s 748 mmHg 85%
    23:00 +13°C° 0 mm 1 m/s 748 mmHg 86%
    Voir plus